Weather History for KAAA - September, 2013

Change the Weather History Date:

Thursday, September 12, 2013

  Actual Average (KSPI) Record (KSPI)
Temperature  
Mean Temperature 74 °F 68 °F  
Max Temperature 86 °F 81 °F 96 °F (1897)
Min Temperature 62 °F 56 °F 39 °F (1955)
Degree Days  
Heating Degree Days 0 1  
Month to date heating degree days 9  
Since 1 July heating degree days 14  
Cooling Degree Days 9 5  
Month to date cooling degree days 73  
Year to date cooling degree days 1043  
Growing Degree Days 24 (Base 50)    
Moisture  
Dew Point 61 °F    
Average Humidity 67    
Maximum Humidity 95    
Minimum Humidity 26    
Precipitation  
Precipitation 0.00 in 0.11 in 1.58 in (1949)
Month to date precipitation 1.19  
Year to date precipitation 26.84  
Snow  
Snow 0.00 in 0.00 in 0.00 in ()
Month to date snowfall 0.0  
Since 1 July snowfall 0.0  
Since 1 September snowfall 0.0  
Snow Depth -    
Sea Level Pressure  
Sea Level Pressure 30.01 in    
Wind  
Wind Speed 3 mph (NW)    
Max Wind Speed 12 mph    
Max Gust Speed 21 mph    
Visibility 10 miles    
Events Rain , Thunderstorm    
T = Trace of Precipitation, MM = Missing Value Source: NWS Daily Summary

Daily Weather History Graph

Daily Weather History Graph

Search for Another Location

Airport or City:

Trip Planner

Search our weather history database for the weather conditions in past years. The results will help you decide how hot, cold, wet, or windy it might be!

Date:

Astronomy

Sep. 12, 2013 Rise Set
Actual Time 6:35 AM CDT 7:10 PM CDT
Civil Twilight 6:08 AM CDT 7:37 PM CDT
Nautical Twilight 5:36 AM CDT 8:10 PM CDT
Astronomical Twilight 5:02 AM CDT 8:43 PM CDT
Moon 2:03 PM CDT (9/12) No Moon Set
Length of Visible Light 13h 29m
Length of Day
12h 35m
Waxing Crescent, 50% of the Moon is Illuminated
Sep 12
Waxing Crescent
Sep 12
First Quarter
Sep 19
Full
Sep 26
Last Quarter
Oct 4
New

Hourly Weather History & Observations

Time (CDT) Temp. Heat Index Dew Point Humidity Pressure Visibility Wind Dir Wind Speed Gust Speed Precip Events Conditions
12:15 AM 75.7 °F - 68.4 °F 78% 29.99 in 10.0 mi Calm Calm - N/A Rain Light Rain
12:35 AM 75.4 °F - 69.1 °F 81% 29.99 in 10.0 mi Calm Calm - N/A   Mostly Cloudy
12:55 AM 75.4 °F - 68.4 °F 79% 30.00 in 10.0 mi Calm Calm - N/A   Mostly Cloudy
1:15 AM 75.7 °F - 67.3 °F 75% 29.99 in 10.0 mi Calm Calm - N/A   Mostly Cloudy
1:35 AM 75.4 °F - 67.1 °F 75% 29.99 in 10.0 mi Calm Calm - N/A   Mostly Cloudy
1:55 AM 74.8 °F - 67.8 °F 79% 29.99 in 10.0 mi Calm Calm - N/A Rain Light Rain
2:15 AM 74.8 °F - 68.0 °F 79% 30.02 in 10.0 mi West 8.1 mph - N/A   Overcast
2:35 AM 72.5 °F - 69.8 °F 91% 30.01 in 3.0 mi NW 4.6 mph - N/A Rain Heavy Rain
2:55 AM 72.0 °F - 70.2 °F 94% 30.01 in 7.0 mi NNW 4.6 mph - N/A Rain , Thunderstorm Rain
3:15 AM 72.0 °F - 70.2 °F 94% 30.00 in 10.0 mi Calm Calm - N/A Rain , Thunderstorm Light Thunderstorms and Rain
3:35 AM 71.8 °F - 70.2 °F 95% 30.01 in 10.0 mi Calm Calm - N/A   Clear
3:55 AM 71.8 °F - 70.3 °F 95% 30.01 in 10.0 mi Calm Calm - N/A   Clear
4:15 AM 71.6 °F - 70.2 °F 95% 30.01 in 7.0 mi Calm Calm - N/A   Clear
4:35 AM 71.6 °F - 70.2 °F 95% 30.01 in 7.0 mi Calm Calm - N/A   Clear
4:55 AM 71.8 °F - 70.3 °F 95% 30.01 in 7.0 mi Calm Calm - N/A   Clear
5:15 AM 71.8 °F - 70.3 °F 95% 30.01 in 7.0 mi Calm Calm - N/A   Clear
5:35 AM 72.0 °F - 70.5 °F 95% 30.02 in 7.0 mi Calm Calm - N/A   Scattered Clouds
5:55 AM 71.8 °F - 70.3 °F 95% 30.02 in 7.0 mi WNW 3.5 mph - N/A Rain Light Rain
6:15 AM 71.6 °F - 70.2 °F 95% 30.04 in 7.0 mi West 3.5 mph - N/A Rain Light Rain
6:35 AM 71.1 °F - 69.4 °F 95% 30.04 in 10.0 mi West 3.5 mph - N/A Rain Light Rain
6:55 AM 70.2 °F - 68.2 °F 93% 30.03 in 10.0 mi Calm Calm - N/A Rain Light Rain
7:15 AM 70.3 °F - 68.4 °F 93% 30.04 in 10.0 mi Calm Calm - N/A   Overcast
7:35 AM 70.3 °F - 68.5 °F 94% 30.03 in 10.0 mi Calm Calm - N/A   Overcast
7:55 AM 70.3 °F - 68.5 °F 94% 30.03 in 10.0 mi Calm Calm - N/A   Overcast
8:15 AM 70.5 °F - 68.4 °F 93% 30.03 in 10.0 mi Calm Calm - N/A   Overcast
8:35 AM 70.7 °F - 68.5 °F 93% 30.03 in 10.0 mi Calm Calm - N/A   Mostly Cloudy
8:55 AM 71.2 °F - 68.0 °F 89% 30.03 in 10.0 mi Calm Calm - N/A   Scattered Clouds
9:15 AM 71.8 °F - 68.0 °F 88% 30.03 in 10.0 mi WSW 3.5 mph - N/A   Scattered Clouds
9:35 AM 71.6 °F - 67.8 °F 88% 30.02 in 10.0 mi WSW 4.6 mph - N/A   Clear
9:55 AM 72.0 °F - 68.0 °F 87% 30.02 in 10.0 mi Calm Calm - N/A   Clear
10:15 AM 72.9 °F - 68.2 °F 85% 30.03 in 10.0 mi West 5.8 mph - N/A   Clear
10:35 AM 74.7 °F - 68.5 °F 81% 30.02 in 10.0 mi West 3.5 mph - N/A   Clear
10:55 AM 75.4 °F - 68.4 °F 79% 30.02 in 10.0 mi WNW 4.6 mph - N/A   Clear
11:15 AM 76.1 °F - 68.2 °F 76% 30.03 in 10.0 mi WNW 4.6 mph - N/A   Clear
11:35 AM 78.4 °F - 68.4 °F 71% 30.02 in 10.0 mi West 5.8 mph - N/A   Clear
11:55 AM 79.0 °F - 67.3 °F 67% 30.02 in 10.0 mi West 4.6 mph - N/A   Clear
12:15 PM 81.0 °F 83.4 °F 67.1 °F 63% 30.02 in 10.0 mi WNW 5.8 mph - N/A   Clear
12:35 PM 81.9 °F 84.2 °F 66.7 °F 60% 30.02 in 10.0 mi West 5.8 mph - N/A   Clear
12:55 PM 82.4 °F 84.6 °F 66.4 °F 58% 30.01 in 10.0 mi West 8.1 mph - N/A   Scattered Clouds
1:15 PM 83.3 °F 85.1 °F 65.3 °F 54% 30.00 in 10.0 mi West 5.8 mph 16.1 mph N/A   Scattered Clouds
1:35 PM 84.0 °F 85.6 °F 64.8 °F 52% 29.99 in 10.0 mi West 6.9 mph - N/A   Scattered Clouds
1:55 PM 84.9 °F 85.6 °F 62.4 °F 47% 29.99 in 10.0 mi West 8.1 mph - N/A   Mostly Cloudy
2:15 PM 84.7 °F 85.2 °F 62.1 °F 46% 29.97 in 10.0 mi West 6.9 mph 18.4 mph N/A   Mostly Cloudy
2:35 PM 85.5 °F 85.9 °F 61.9 °F 45% 29.97 in 10.0 mi WNW 9.2 mph 17.3 mph N/A   Mostly Cloudy
2:55 PM 86.2 °F 85.0 °F 57.4 °F 37% 29.97 in 10.0 mi NW 9.2 mph 17.3 mph N/A   Mostly Cloudy
3:15 PM 86.4 °F 84.4 °F 53.2 °F 32% 29.96 in 10.0 mi NNW 11.5 mph 19.6 mph N/A   Scattered Clouds
3:35 PM 84.9 °F - 49.3 °F 29% 29.96 in 10.0 mi NW 10.4 mph 20.7 mph N/A   Clear
3:55 PM 84.4 °F - 46.2 °F 26% 29.96 in 10.0 mi NW 9.2 mph 18.4 mph N/A   Clear
4:15 PM 84.2 °F - 48.6 °F 29% 29.96 in 10.0 mi NW 9.2 mph - N/A   Clear
4:35 PM 83.3 °F - 48.0 °F 29% 29.96 in 10.0 mi NW 9.2 mph - N/A   Clear
4:55 PM 82.8 °F - 48.0 °F 30% 29.96 in 10.0 mi NW 10.4 mph 16.1 mph N/A   Clear
5:15 PM 81.9 °F - 47.3 °F 30% 29.96 in 10.0 mi NW 8.1 mph - N/A   Clear
5:35 PM 80.6 °F - 45.3 °F 29% 29.97 in 10.0 mi NW 8.1 mph 16.1 mph N/A   Clear
5:55 PM 79.3 °F - 45.1 °F 30% 29.97 in 10.0 mi NW 9.2 mph - N/A   Clear
6:15 PM 77.9 °F - 45.7 °F 32% 29.97 in 10.0 mi NW 6.9 mph - N/A   Clear
6:35 PM 75.9 °F - 46.4 °F 35% 29.98 in 10.0 mi NNW 5.8 mph - N/A   Clear
6:55 PM 74.5 °F - 45.9 °F 36% 29.99 in 10.0 mi NNW 5.8 mph - N/A   Clear
7:15 PM 72.7 °F - 47.5 °F 41% 29.99 in 10.0 mi NNW 4.6 mph - N/A   Clear
7:35 PM 70.9 °F - 48.9 °F 46% 30.00 in 10.0 mi NNW 5.8 mph - N/A   Clear
7:55 PM 69.6 °F - 49.5 °F 49% 30.01 in 10.0 mi Calm Calm - N/A   Clear
8:15 PM 68.4 °F - 50.2 °F 52% 30.02 in 10.0 mi Calm Calm - N/A   Clear
8:35 PM 67.5 °F - 50.4 °F 54% 30.03 in 10.0 mi Calm Calm - N/A   Clear
8:55 PM 66.4 °F - 50.9 °F 57% 30.03 in 10.0 mi Calm Calm - N/A   Clear
9:15 PM 66.2 °F - 50.5 °F 57% 30.04 in 10.0 mi NW 3.5 mph - N/A   Clear
9:35 PM 65.5 °F - 50.9 °F 59% 30.04 in 10.0 mi NNW 4.6 mph - N/A   Clear
9:55 PM 64.9 °F - 51.1 °F 61% 30.05 in 10.0 mi Calm Calm - N/A   Clear
10:15 PM 63.9 °F - 51.6 °F 64% 30.05 in 10.0 mi Calm Calm - N/A   Clear
10:35 PM 63.5 °F - 51.8 °F 66% 30.05 in 10.0 mi NNW 4.6 mph - N/A   Clear
10:55 PM 62.6 °F - 51.8 °F 68% 30.06 in 10.0 mi North 4.6 mph - N/A   Clear
11:15 PM 62.8 °F - 51.8 °F 67% 30.06 in 10.0 mi North 6.9 mph - N/A   Clear
11:35 PM 62.8 °F - 51.4 °F 66% 30.06 in 10.0 mi North 6.9 mph - N/A   Clear
11:55 PM 62.2 °F - 51.4 °F 68% 30.06 in 10.0 mi North 5.8 mph - N/A   Clear